UAL1440 KSCK-KLAS

Flight info

Callsign UAL1440
Flight time N/A
Altitude 31000
Route MOD CABAB Q174 FLCHR COKTL4
Aircraft B738/M-SDGIJ1LRWY/SB1

Departure

Time N/A
Airport Stockton Metropolitan Airport (KSCK)

Arrival

Time 2026-05-03 20:47
Airport Harry Reid International Airport (KLAS)
Time Latitude Longitude Altitude Speed Heading
2026-05-03 20:15 37.36708 -117.47902 31052 ft 458 kts 88°
2026-05-03 20:15 37.37241 -117.39979 31028 ft 458 kts 89°
2026-05-03 20:16 37.37464 -117.31981 31029 ft 453 kts 99°
2026-05-03 20:16 37.36894 -117.28129 31026 ft 443 kts 112°
2026-05-03 20:16 37.35741 -117.24574 31007 ft 437 kts 123°
2026-05-03 20:17 37.32349 -117.18298 31019 ft 433 kts 135°
2026-05-03 20:17 37.28400 -117.12648 31017 ft 430 kts 139°
2026-05-03 20:18 37.24332 -117.07130 30990 ft 431 kts 139°
2026-05-03 20:18 37.20246 -117.01575 30995 ft 433 kts 139°
2026-05-03 20:19 37.16199 -116.96030 30991 ft 432 kts 139°
2026-05-03 20:19 37.12130 -116.90466 30982 ft 436 kts 140°
2026-05-03 20:20 37.07703 -116.85338 31006 ft 430 kts 149°
2026-05-03 20:20 37.02902 -116.81081 30990 ft 424 kts 153°
2026-05-03 20:21 36.97984 -116.76996 30971 ft 424 kts 154°
2026-05-03 20:21 36.93071 -116.72890 30970 ft 426 kts 153°
2026-05-03 20:22 36.88153 -116.68733 30961 ft 426 kts 154°
2026-05-03 20:22 36.83236 -116.64558 30941 ft 429 kts 154°
2026-05-03 20:23 36.78321 -116.60369 30934 ft 429 kts 154°
2026-05-03 20:23 36.73433 -116.56189 30933 ft 417 kts 155°
2026-05-03 20:23 36.71090 -116.54182 30753 ft 409 kts 154°
2026-05-03 20:24 36.68749 -116.52177 30386 ft 404 kts 154°
2026-05-03 20:24 36.66486 -116.50144 29929 ft 404 kts 152°
2026-05-03 20:24 36.64337 -116.47890 29468 ft 408 kts 145°
2026-05-03 20:24 36.62324 -116.45378 28950 ft 410 kts 141°
2026-05-03 20:25 36.60413 -116.42762 28433 ft 411 kts 139°
2026-05-03 20:25 36.58534 -116.40080 27910 ft 409 kts 139°
2026-05-03 20:25 36.56702 -116.37431 27418 ft 407 kts 138°
2026-05-03 20:25 36.54865 -116.34773 26908 ft 404 kts 138°
2026-05-03 20:26 36.53040 -116.32147 26406 ft 401 kts 138°
2026-05-03 20:26 36.51212 -116.29532 25876 ft 392 kts 138°
2026-05-03 20:26 36.49477 -116.27054 25408 ft 379 kts 137°
2026-05-03 20:26 36.47750 -116.24600 24951 ft 373 kts 137°
2026-05-03 20:27 36.46053 -116.22208 24444 ft 370 kts 137°
2026-05-03 20:27 36.44361 -116.19830 23982 ft 366 kts 137°
2026-05-03 20:27 36.42676 -116.17464 23523 ft 362 kts 136°
2026-05-03 20:27 36.41027 -116.15148 23068 ft 358 kts 136°
2026-05-03 20:28 36.39406 -116.12875 22623 ft 354 kts 136°
2026-05-03 20:28 36.37780 -116.10597 22185 ft 349 kts 136°
2026-05-03 20:28 36.36179 -116.08353 21734 ft 346 kts 136°
2026-05-03 20:28 36.34611 -116.06158 21289 ft 342 kts 136°
2026-05-03 20:29 36.33043 -116.03964 20857 ft 339 kts 136°
2026-05-03 20:29 36.31485 -116.01785 20414 ft 335 kts 136°
2026-05-03 20:29 36.29940 -115.99628 19966 ft 332 kts 135°
2026-05-03 20:29 36.28414 -115.97496 19540 ft 329 kts 135°
2026-05-03 20:30 36.26913 -115.95402 19132 ft 325 kts 135°
2026-05-03 20:30 36.25431 -115.93335 18958 ft 319 kts 135°
2026-05-03 20:30 36.23991 -115.91241 18795 ft 317 kts 133°
2026-05-03 20:30 36.22627 -115.89095 18544 ft 316 kts 131°
2026-05-03 20:31 36.21305 -115.86944 18302 ft 314 kts 130°
2026-05-03 20:31 36.19990 -115.84804 18064 ft 314 kts 131°
2026-05-03 20:31 36.18655 -115.82659 17815 ft 312 kts 131°
2026-05-03 20:31 36.17347 -115.80578 17565 ft 309 kts 131°
2026-05-03 20:32 36.16029 -115.78490 17316 ft 307 kts 131°
2026-05-03 20:32 36.14734 -115.76361 17066 ft 308 kts 128°
2026-05-03 20:32 36.13629 -115.74112 16811 ft 309 kts 121°
2026-05-03 20:32 36.12737 -115.71682 16553 ft 311 kts 116°
2026-05-03 20:33 36.11966 -115.69186 16293 ft 309 kts 114°
2026-05-03 20:33 36.11242 -115.66708 16036 ft 308 kts 114°
2026-05-03 20:33 36.10514 -115.64226 15788 ft 308 kts 114°
2026-05-03 20:33 36.09766 -115.61735 15536 ft 306 kts 114°
2026-05-03 20:34 36.09020 -115.59296 15285 ft 305 kts 114°
2026-05-03 20:34 36.08272 -115.56869 15016 ft 303 kts 115°
2026-05-03 20:34 36.07525 -115.54452 14754 ft 301 kts 115°
2026-05-03 20:34 36.06773 -115.52026 14472 ft 301 kts 115°
2026-05-03 20:35 36.06031 -115.49631 14237 ft 300 kts 115°
2026-05-03 20:35 36.05284 -115.47221 13977 ft 300 kts 115°
2026-05-03 20:35 36.04545 -115.44833 13730 ft 292 kts 114°
2026-05-03 20:35 36.03827 -115.42516 13378 ft 290 kts 114°
2026-05-03 20:36 36.03112 -115.40211 12959 ft 289 kts 115°
2026-05-03 20:36 36.02394 -115.37904 12560 ft 287 kts 115°
2026-05-03 20:36 36.01723 -115.35574 12178 ft 286 kts 109°
2026-05-03 20:36 36.01374 -115.33174 11824 ft 287 kts 100°
2026-05-03 20:37 36.01260 -115.30694 11436 ft 287 kts 96°
2026-05-03 20:37 36.01206 -115.28264 11065 ft 285 kts 96°
2026-05-03 20:37 36.01135 -115.25816 10685 ft 283 kts 97°
2026-05-03 20:37 36.01038 -115.23415 10320 ft 282 kts 98°
2026-05-03 20:38 36.00923 -115.21015 10019 ft 278 kts 98°
2026-05-03 20:38 36.00809 -115.18739 9829 ft 270 kts 98°
2026-05-03 20:38 36.00692 -115.16446 9569 ft 265 kts 98°
2026-05-03 20:38 36.00584 -115.14207 9479 ft 254 kts 97°
2026-05-03 20:39 36.00558 -115.12085 9401 ft 243 kts 95°
2026-05-03 20:39 36.00550 -115.10045 9254 ft 235 kts 97°
2026-05-03 20:39 36.00517 -115.08038 8939 ft 236 kts 97°
2026-05-03 20:39 36.00475 -115.06000 8640 ft 235 kts 97°
2026-05-03 20:40 36.00429 -115.03996 8358 ft 237 kts 97°
2026-05-03 20:40 36.00377 -115.01925 8069 ft 244 kts 97°
2026-05-03 20:40 36.00320 -114.99848 7800 ft 244 kts 97°
2026-05-03 20:40 36.00261 -114.97745 7382 ft 248 kts 97°
2026-05-03 20:41 36.00202 -114.95622 7049 ft 248 kts 97°
2026-05-03 20:41 36.00146 -114.93525 6759 ft 247 kts 97°
2026-05-03 20:41 36.00088 -114.91422 6505 ft 243 kts 96°
2026-05-03 20:41 36.00090 -114.89346 6260 ft 242 kts 86°
2026-05-03 20:42 36.00766 -114.87431 5859 ft 257 kts 50°
2026-05-03 20:42 36.02298 -114.86309 5673 ft 257 kts 13°
2026-05-03 20:42 36.04055 -114.86152 5470 ft 254 kts 352°
2026-05-03 20:42 36.05675 -114.86933 5084 ft 253 kts 315°
2026-05-03 20:43 36.06752 -114.88610 5009 ft 244 kts 296°
2026-05-03 20:43 36.07380 -114.90538 4987 ft 243 kts 275°
2026-05-03 20:43 36.07462 -114.92589 4998 ft 238 kts 260°
2026-05-03 20:43 36.07343 -114.94637 4788 ft 241 kts 263°
2026-05-03 20:44 36.07330 -114.96719 4439 ft 241 kts 267°
2026-05-03 20:44 36.07382 -114.98689 4181 ft 220 kts 265°
2026-05-03 20:44 36.07379 -115.00487 3885 ft 203 kts 263°
2026-05-03 20:44 36.07357 -115.02222 3646 ft 200 kts 264°
2026-05-03 20:45 36.07367 -115.03915 3400 ft 198 kts 265°
2026-05-03 20:45 36.07373 -115.05617 3153 ft 194 kts 265°
2026-05-03 20:45 36.07366 -115.07194 2895 ft 178 kts 264°
2026-05-03 20:45 36.07367 -115.08653 2679 ft 163 kts 266°
2026-05-03 20:46 36.07367 -115.10051 2495 ft 161 kts 266°
2026-05-03 20:46 36.07362 -115.11426 2295 ft 162 kts 267°
2026-05-03 20:46 36.07366 -115.12842 2090 ft 162 kts 267°
2026-05-03 20:46 36.07362 -115.14062 2107 ft 108 kts 270°
2026-05-03 20:47 36.07370 -115.14700 2125 ft 52 kts 273°
2026-05-03 20:47 36.07451 -115.15004 2136 ft 29 kts 299°
2026-05-03 20:47 36.07502 -115.15232 2143 ft 26 kts 269°
2026-05-03 20:47 36.07502 -115.15432 2151 ft 20 kts 269°
2026-05-03 20:48 36.07517 -115.15582 2157 ft 15 kts 297°
2026-05-03 20:48 36.07582 -115.15678 2159 ft 14 kts 314°
2026-05-03 20:48 36.07667 -115.15781 2160 ft 17 kts 318°
2026-05-03 20:48 36.07781 -115.15823 2158 ft 18 kts
2026-05-03 20:49 36.07874 -115.15757 2155 ft 17 kts 82°
2026-05-03 20:49 36.07878 -115.15582 2148 ft 22 kts 91°
2026-05-03 20:49 36.07877 -115.15395 2140 ft 22 kts 90°
2026-05-03 20:49 36.07877 -115.15192 2133 ft 25 kts 90°
2026-05-03 20:50 36.07871 -115.15012 2129 ft 19 kts 94°
2026-05-03 20:50 36.07861 -115.14864 2122 ft 15 kts 95°
2026-05-03 20:50 36.07869 -115.14752 2119 ft 13 kts 44°
2026-05-03 20:50 36.07959 -115.14768 2118 ft 12 kts 334°
2026-05-03 20:51 36.08000 -115.14780 2117 ft 5 kts 14°
2026-05-03 20:51 36.08022 -115.14752 2116 ft 2 kts 62°
2026-05-03 20:51 36.08028 -115.14739 2116 ft 1 kts 64°
2026-05-03 20:51 36.08030 -115.14732 2115 ft 0 kts 65°
2026-05-03 20:52 36.08031 -115.14730 2115 ft 0 kts 65°